sat.trackr.live / text

‹ back to catalog

STARLINK-4789

NORAD 53868 · 2022-114BC

PAYLOAD ACTIVE UNKNOWN

§ Identity

Operator
Country
US
Launch date
2022-09-19
Launch site
AFETR
Launch vehicle
Mass (kg)
RCS (m²)

Purposes: comms

External: N2YO · Heavens-Above · Gunter

§ Orbital elements

Epoch: 2026-09-20T22:13:09.638400Z

Period
93.79 min
Inclination
53.1597°
Eccentricity
0.0001428
Mean motion
15.35401810 rev/d
Perigee alt
458.8 km
Apogee alt
460.7 km
Semi-major
6,837.9 km
B*
2.2713e-5
RAAN
91.7742°
Arg perigee
82.3255°
Mean anomaly
277.7910°
Rev number
22,308

§ Raw data

STARLINK-47891 53868U 22114BC  26263.92580600  .00000412  00000+0  22713-4 0  99942 53868  53.1597  91.7742 0001428  82.3255 277.7910 15.35401810223088

JSON: /api/v1/satellites/53868 · /tle

For live sub-satellite position, see the globe view (requires WebGL).

§ Visibility from observer

Set your observer location to see the next 7 days of passes ≥ 10°. The values pass through the URL so the page stays shareable.

No JS? Fill the form by hand. The geolocation button needs JavaScript.